Location: Sungai Maklamit
(2.3667°N, 113.8167°E)
Time: 09:55:54
(UTC+00:00)

Daily predictions for brighter satellites

Satellite Brightness Start Highest point End
(mag) Time Altitude Azimuth Time Altitude Azimuth Time Altitude Azimuth
Okean O Rocket 2.7 12:02:32 10° S 12:06:39 43° WSW 12:10:49 10° NNW
NOSS 3-4 (A) 4.4 12:00:31 10° N 12:08:13 49° ENE 12:11:12 36° ESE
NOSS 3-4 (C) 4.4 12:00:39 10° N 12:08:18 48° ENE 12:11:10 36° ESE
ARIANE 5 DEB (SYLDA) 2.7 12:07:30 10° W 12:10:29 77° S 12:10:44 73° SE
Cosmos 2251 Rocket 3.4 12:06:20 10° N 12:11:41 74° ENE 12:13:06 49° SSE
Okean 1 Rocket 2.9 12:07:57 10° N 12:12:20 89° ENE 12:13:09 59° S
Okean-O 3.5 12:14:27 35° NE 12:14:27 35° NE 12:17:29 10° N
YAOGAN 1 4.0 12:09:37 11° SSW 12:13:24 35° WSW 12:17:20 10° NW
Meteor 2-5 Rocket 4.1 12:09:05 10° SSW 12:14:34 63° W 12:20:00 10° N
ARIANE 5 R/B 1.6 12:04:03 10° W 12:15:46 79° N 12:16:15 65° ENE
ARIANE 5 DEB (SYLDA 5A) 3.5 12:13:08 10° W 12:14:36 24° W 12:14:36 24° W
SL-4 R/B 4.3 12:12:25 10° SSW 12:12:40 12° SSW 12:12:40 12° SSW
Cosmos 1238 Rocket 4.5 12:11:26 10° NNW 12:17:46 60° W 12:23:27 12° S
Cosmos 1975 Rocket 4.2 12:15:12 10° SSW 12:19:28 44° W 12:23:41 10° NNW
Meteor 1-24 Rocket 4.1 12:19:39 10° SSW 12:24:50 57° W 12:30:01 10° N
Atlas Centaur 2 3.8 12:23:01 10° NNW 12:26:40 17° NNE 12:27:16 17° NNE
Cosmos 1331 Rocket 4.0 12:29:16 66° NE 12:29:16 66° NE 12:33:52 10° NNE
Meteor 2-10 Rocket 3.5 12:25:46 10° N 12:30:19 70° NNE 12:30:19 70° NNE
Meteosat 1 Rocket2 4.3 12:26:05 10° NW 12:30:33 33° NNE 12:30:33 33° NNE
H-2A R/B 2.4 12:28:56 10° N 12:33:08 66° NW 12:33:08 66° NW
Meteor 2-12 Rocket 4.3 12:30:11 10° N 12:36:02 71° ENE 12:36:02 71° ENE
Cosmos 1300 4.3 12:34:46 10° NNW 12:37:04 32° NW 12:37:04 32° NW
CZ-4 R/B 3.8 12:36:51 15° SW 12:38:53 20° WSW 12:41:58 10° NW
ARIANE 5 R/B 3.8 12:35:47 10° WSW 12:37:34 16° SW 12:37:34 16° SW
Delta 2 Rocket 3.7 12:32:34 10° WSW 12:39:04 84° SSE 12:39:04 84° SSE
COBE Rocket 4.2 12:40:03 59° WNW 12:40:03 59° WNW 12:44:02 10° NNW
Ariane H10+ 3.3 12:38:29 10° W 12:39:58 36° W 12:39:58 36° W
BREEZE-M DEB (TANK) 4.0 12:27:09 10° SW 12:43:14 90° WSW 12:44:01 68° NE
Hubble Space Telescope 3.2 12:43:27 10° W 12:44:49 16° WSW 12:44:49 16° WSW
CSL-04 Debris 4.4 12:47:03 65° W 12:47:03 65° W 12:52:14 10° NNW
ATLAS 3B CENTAUR R/B 4.0 12:32:42 10° NW 12:48:14 78° NNE 12:52:13 53° ESE
BLOCK DM-SL R/B 3.9 12:45:39 10° W 12:50:33 87° S 21:10:57 10° E
Centaur D AC-28 3.4 12:11:11 10° WNW 13:00:09 79° NNE 13:01:21 68° E
Ariane H10+ 3.8 13:05:44 10° W 13:10:42 82° N 23:15:14 10° E
Ariane H10+ 3.7 19:47:15 50° SSE 19:47:15 50° SSE 20:01:50 10° ESE
deb Olympus 4.5 19:50:46 65° E 19:50:46 65° E 20:05:41 10° E
SL-16 R/B 3.1 19:48:47 10° N 19:53:49 45° ENE 19:53:49 45° ENE
Cosmos 1844 Rocket 3.5 20:01:16 44° NNE 20:01:16 44° NNE 20:04:57 10° NNE
Milstar 3 Cent rocket 4.1 20:02:17 16° N 20:02:17 16° N 20:04:13 10° NNE
NOSS 3-1 (C) 3.9 20:07:55 40° NNE 20:07:55 40° NNE 20:11:03 10° NNE
CZ-4C R/B 2.8 20:22:36 33° N 20:22:36 33° N 20:25:04 10° NNE
ARIANE 5 R/B 4.4 20:23:35 59° S 20:23:35 59° S 20:29:01 10° E
Meteor 2-4 Rocket 4.4 20:18:25 10° NNW 20:22:21 43° NW 20:22:21 43° NW
NOSS 3-1 (A) 3.5 20:23:55 46° SE 20:24:26 48° ESE 20:29:10 10° NE
CZ-4B R/B 4.4 20:20:35 10° NNE 20:25:10 42° ESE 20:26:51 31° SSE
Lacrosse 4 Rocket 4.0 20:25:07 10° NNW 20:25:16 11° NNW 20:25:16 11° NNW
ATLAS 5 CENTAUR R/B 3.4 20:26:39 37° SSW 20:30:02 52° SSE 21:00:59 10° ENE
CZ-2C R/B 3.6 20:31:44 12° ESE 20:31:44 12° ESE 20:32:13 10° ESE
CZ-2C R/B 4.2 20:29:46 10° NE 20:34:06 37° ESE 20:37:29 16° SSE
ARIANE 5 DEB (SYLDA) 4.1 20:38:15 36° SSE 20:38:15 36° SSE 20:46:16 10° E
SWIFT 3.3 20:40:59 35° SE 20:40:59 35° SE 20:43:39 10° ESE
ARIANE 5 R/B 4.5 20:37:59 10° NNW 20:39:17 15° NW 20:39:17 15° NW
Envisat 2.8 20:37:03 10° N 20:42:07 83° W 20:43:22 52° SSW
NOSS 2-2 (E) 3.7 20:41:30 57° SSE 20:42:10 68° ESE 20:45:57 10° NNE
Meteor 2-9 Rocket 4.2 20:42:54 27° S 20:46:11 87° E 20:51:50 10° N
CZ-2C R/B 2.7 20:44:49 10° N 20:48:43 73° WNW 20:48:43 73° WNW
SL-08 R/B 4.1 20:46:36 10° SSE 20:51:18 53° ENE 20:56:03 10° N
BREEZE-M DEB (TANK) 4.4 20:55:40 29° SSW 20:55:40 29° SSW 21:00:48 10° SSE
NOAA 11 4.2 21:00:33 10° NNE 21:05:58 81° ESE 21:11:25 10° S
Nadezhda 4 Rocket 4.0 21:01:12 10° S 21:07:27 85° E 21:13:37 10° N
ASTRO E2 3.6 21:08:47 30° SSW 21:08:47 30° SSW 21:11:44 10° SSE
Cosmos 1862 Rocket 4.1 21:05:49 10° NNW 21:09:44 34° W 21:10:02 34° WSW
DELTA 2 DEB (DPAF) 4.3 21:07:00 18° S 21:09:58 47° WSW 21:14:12 10° NNW
H-2A R/B 3.2 21:09:12 10° N 21:12:45 39° W 21:13:33 34° WSW
ARIANE 5 R/B 3.3 21:12:23 27° W 21:14:52 80° S 21:40:42 10° E
Meteor 1-4 Rocket 2.9 21:13:12 10° S 21:16:39 63° E 21:20:09 10° NNE
PSLV R/B 4.4 21:14:47 10° NNW 21:18:21 28° WNW 21:19:14 26° W
Meteor 2-15 Rocket 4.4 21:14:27 10° N 21:20:32 72° W 21:26:36 10° S
BREEZE-M R/B 4.4 21:16:09 10° NNW 21:20:35 33° NE 21:23:18 10° ESE
MINOTAUR 4 R/B 4.2 21:18:00 10° SSE 21:21:30 74° ENE 21:24:59 10° N
Spelda 4.0 21:22:39 23° SW 21:23:42 28° S 21:25:59 10° SE
APEX 2.4 21:21:12 10° NNW 21:23:53 57° WSW 21:26:55 10° S
Sakura Rocket 2.8 21:21:14 10° NW 21:24:57 67° NNE 21:28:35 10° ESE
DELTA 4 R/B 3.8 21:22:54 10° NNW 21:25:15 26° NE 21:30:51 10° E
NOSS 2-2 (D) 3.9 21:23:02 21° SW 21:25:51 44° WNW 21:29:29 10° N
ARIANE 44L R/B 2.5 21:19:08 13° W 21:26:09 71° S 21:28:40 10° ESE
Okean 3 3.6 21:23:38 10° N 21:27:46 76° E 21:31:55 10° S
Cosmos 2278 Rocket 2.9 21:22:41 10° S 21:28:11 54° ESE 21:33:41 10° NNE
Meteor 2-14 Rocket 4.5 21:23:01 10° SSW 21:28:57 60° W 21:34:55 10° N
Cosmos 2242 Rocket 4.1 21:25:37 10° N 21:30:04 64° E 21:34:35 10° SSE
CZ-3B Rocket 3.0 21:30:54 17° WSW 21:32:56 24° SSW 21:36:05 10° SE
ARIANE 3 DEB 3.6 21:28:28 10° WNW 21:33:51 45° N 21:36:48 10° ENE
Meteor 2-21 Rocket 4.4 21:28:00 10° S 21:34:04 84° W 21:40:10 10° N
Aureole 3 Rocket 4.1 21:33:36 10° NNE 21:37:14 49° E 21:42:08 10° SSE
CZ-4B R/B 4.0 21:34:18 10° N 21:38:42 77° WNW 21:43:00 10° SSW
Okean 1-7 3.3 21:37:04 10° NNW 21:41:14 47° W 21:45:26 10° SSW
Cosmos 2084 3.8 21:37:42 10° NW 21:42:02 48° WSW 21:46:34 10° S
Cosmos 292 Rocket 3.7 21:38:22 10° NNW 21:43:09 71° WSW 21:47:58 10° S
DELTA 2 R/B(2) 3.3 21:43:14 18° SW 21:44:30 73° NW 21:47:30 10° NE
ARIANE 5 R/B 2.1 21:43:06 13° W 21:45:05 89° S 21:51:43 10° E
USA 229 DEB 4.1 21:42:15 11° SW 21:47:32 35° WNW 21:53:06 10° N
USA 229 4.1 21:42:15 11° SW 21:47:37 36° WNW 21:53:14 10° N
Cosmos 1842 3.2 21:45:22 10° NNW 21:49:13 63° W 21:53:05 10° S
H-2A R/B 3.6 21:44:57 10° NE 21:49:28 36° ESE 21:53:55 10° SSE
Cosmos 1943 3.3 21:45:27 10° NNW 21:50:54 54° WSW 21:56:23 10° S
Cosmos 1975 4.2 21:48:35 10° SW 21:51:31 20° W 21:54:27 10° NW
ARIANE 5 R/B 4.2 21:17:44 12° W 21:52:49 58° S 21:59:05 10° ESE
Cosmos 1092 Rocket 4.0 21:47:59 10° SSW 21:54:08 67° W 22:00:12 10° N
Cosmos 2279 Rocket 4.4 21:48:24 10° NNW 21:54:11 42° W 21:59:59 10° SSW
Ariane H10 3.6 21:51:24 10° WSW 21:54:32 30° S 21:57:19 10° ESE
Delta 198 3.8 21:51:24 10° WSW 21:56:22 63° NNW 22:00:32 10° NE
Genesis I 3.5 21:53:32 10° SW 21:57:15 49° WNW 22:01:04 10° N
ADEOS 4.1 21:54:09 10° NNE 21:59:18 63° ESE 22:04:28 10° S
Cosmos 1939 Rocket 2.8 21:55:59 10° N 21:59:45 62° WNW 22:03:33 10° SSW
SMAP 4.5 21:55:43 10° NNE 22:00:04 41° ESE 22:04:26 10° S
USA 81 4.4 21:56:43 10° NNW 22:01:44 46° W 22:06:46 10° SSW
ARIANE 44L R/B 3.3 21:51:38 10° W 22:02:38 53° SSW 22:05:33 10° ESE
